Location: Northcutt
(34.7304°N, 84.4305°W)
Time: 10:30:12
(UTC+00:00)

A-11 Canister half - Pass Details

Date: 04 October 2022
Orbit: 1524 x 1685 km, 47.3° (Epoch: 30 November)

Event Time Altitude Azimuth Distance (km) Brightness Sun altitude
Rises 05:32:26 0° 290° (WNW) 4,787 - -59.6°
Reaches altitude 10° 05:37:04 10° 271° (W) 3,830 - -59.5°
Maximum altitude 05:42:26 16° 236° (WSW) 3,378 - -59.4°
Drops below altitude 10° 05:47:55 10° 202° (SSW) 3,889 - -59.2°
Sets 05:52:45 0° 183° (S) 4,896 - -59.0°
